Location: ??????
(38.1303°N, 24.0039°E)
Time: 12:34:48
(UTC+00:00)

IRIDIUM 114 - Pass Details

Date: 20 June 2021
Orbit: 776 x 779 km, 86.4° (Epoch: 02 August)

Event Time Altitude Azimuth Distance (km) Brightness Sun altitude
Rises 01:08:01 0° 354° (N) 3,268 8.3 -17.6°
Reaches altitude 10° 01:10:23 10° 351° (N) 2,336 7.4 -17.3°
Maximum altitude 01:15:33 64° 271° (W) 861 4.3 -16.7°
Enters shadow 01:18:42 23° 196° (SSW) 1,583 5.4 -16.2°
